INTELSAT 704

operational
NORAD ID: 23461 Int'l Des: 1995-001 Owner: INTEL Country: I-INT
HEOCIRCULAR

About INTELSAT 704

Description loading...

Live Position

Loading 3D Globe...

Upcoming Passes

Altitude History

Altitude vs Time

uPlot chart will show altitude changes over time

Two-Line Element Set

1 23461U 95001A 26063.32475400 -.00000246 00000-0 00000+0 0 9995
2 23461 11.6766 36.5070 0009064 181.8290 179.9126 0.99180694113448
Epoch: Mar 4, 2026 • Age: 22 hours

Current Status

Altitude 36061.0 km
Velocity 3.07 km/s
Sub-Earth Point -5.27°S, 116.57°E
Launch Date Jan 10, 1995
Age 31.1 years
Type communications

Technical Details

Classification Payload
Mass 3695.00 kg
Dry Mass 1500.00 kg
Total Mass 3695.00 kg
Length 4.20 m
Diameter 2.50 m
Span 21.80 m
Shape Box + 2 Pan
Manufacturer LOR
Bus Type FS-1300
Phase Status Renamed
Owner/State INTEL/I-INT

Large Constellations

Loading constellations...